| time (UTC) | temp F | wind direction | speed MPH | gust MPH | rain 1hr in | rain 24hr in | rain mn in | humidity % | barometer mb |
| 20260504110415 | 0 | 259 | 4.0 | 5.0 | 0.00 | 0.00 | 0.00 | 1012.2 | |
| 20260504100332 | 0 | 103 | 0.0 | 0.0 | 0.00 | 0.00 | 0.00 | 1011.8 | |
| 20260504081726 | 0 | 37 | 9.0 | 10.0 | 0.00 | 0.00 | 0.00 | 1011.3 | |
| 20260504081222 | 0 | 340 | 15.0 | 17.0 | 0.00 | 0.00 | 0.00 | 1011.1 | |
| 20260504080718 | 0 | 24 | 17.0 | 20.0 | 0.00 | 0.00 | 0.00 | 1011.0 | |
| 20260504080215 | 0 | 19 | 18.0 | 21.0 | 0.00 | 0.00 | 0.00 | 1011.0 | |
| 20260504070142 | 0 | 30 | 20.0 | 24.0 | 0.00 | 0.00 | 0.00 | 1009.3 | |
| 20260504050531 | 0 | 21 | 26.0 | 33.0 | 0.00 | 0.00 | 0.00 | 1006.4 | |
| 20260504045525 | 0 | 31 | 24.0 | 29.0 | 0.00 | 0.00 | 0.00 | 1006.3 | |
| 20260504045020 | 0 | 6 | 20.0 | 26.0 | 0.00 | 0.00 | 0.00 | 1005.9 | |
| 20260504044518 | 0 | 12 | 13.0 | 14.0 | 0.00 | 0.00 | 0.00 | 1005.5 | |
| 20260504044015 | 0 | 28 | 10.0 | 11.0 | 0.00 | 0.00 | 0.00 | 1005.4 | |
| 20260504043512 | 0 | 11 | 9.0 | 9.0 | 0.00 | 0.00 | 0.00 | 1005.3 | |
| 20260504043009 | 0 | 359 | 11.0 | 13.0 | 0.00 | 0.00 | 0.00 | 1004.9 | |
| 20260504042506 | 0 | 29 | 11.0 | 11.0 | 0.00 | 0.00 | 0.00 | 1005.1 | |
| 20260504042003 | 0 | 20 | 11.0 | 13.0 | 0.00 | 0.00 | 0.00 | 1004.7 | |
| 20260504041459 | 0 | 16 | 12.0 | 14.0 | 0.00 | 0.00 | 0.00 | 1004.9 | |
| 20260504040955 | 0 | 13 | 13.0 | 14.0 | 0.00 | 0.00 | 0.00 | 1004.6 | |
| 20260504040453 | 0 | 30 | 13.0 | 15.0 | 0.00 | 0.00 | 0.00 | 1004.6 | |
| 20260504035948 | 0 | 22 | 12.0 | 14.0 | 0.00 | 0.00 | 0.00 | 1004.3 | |
| 20260504035446 | 0 | 20 | 13.0 | 15.0 | 0.00 | 0.00 | 0.00 | 1004.5 | |
| 20260504034942 | 0 | 27 | 12.0 | 14.0 | 0.00 | 0.00 | 0.00 | 1004.4 | |
| 20260504034440 | 0 | 18 | 11.0 | 15.0 | 0.00 | 0.00 | 0.00 | 1004.2 | |
| 20260504033937 | 0 | 24 | 14.0 | 16.0 | 0.00 | 0.00 | 0.00 | 1003.9 | |
| 20260504033435 | 0 | 20 | 16.0 | 18.0 | 0.00 | 0.00 | 0.00 | 1003.7 | |
| 20260504032932 | 0 | 20 | 19.0 | 22.0 | 0.00 | 0.00 | 0.00 | 1003.7 | |
| 20260504032429 | 0 | 21 | 15.0 | 17.0 | 0.00 | 0.00 | 0.00 | 1003.7 | |
| 20260504031925 | 0 | 13 | 16.0 | 20.0 | 0.00 | 0.00 | 0.00 | 1003.7 | |
| 20260504031422 | 0 | 7 | 13.0 | 15.0 | 0.00 | 0.00 | 0.00 | 1003.6 | |
| 20260504030919 | 0 | 30 | 13.0 | 15.0 | 0.00 | 0.00 | 0.00 | 1003.4 | |
| 20260504030416 | 0 | 11 | 15.0 | 17.0 | 0.00 | 0.00 | 0.00 | 1003.3 | |
| 20260504025912 | 0 | 26 | 11.0 | 14.0 | 0.00 | 0.00 | 0.00 | 1003.2 | |
| 20260504025409 | 0 | 18 | 10.0 | 11.0 | 0.00 | 0.00 | 0.00 | 1003.3 | |
| 20260504024906 | 0 | 29 | 12.0 | 13.0 | 0.00 | 0.00 | 0.00 | 1002.9 | |
| 20260504024403 | 0 | 15 | 7.0 | 8.0 | 0.00 | 0.00 | 0.00 | 1003.0 | |
| 20260504023900 | 0 | 8 | 12.0 | 14.0 | 0.00 | 0.00 | 0.00 | 1003.2 | |
| 20260504023356 | 0 | 13 | 7.0 | 8.0 | 0.00 | 0.00 | 0.00 | 1003.2 | |
| 20260504022852 | 0 | 53 | 6.0 | 8.0 | 0.00 | 0.00 | 0.00 | 1002.9 | |
| 20260504022349 | 0 | 3 | 5.0 | 6.0 | 0.00 | 0.00 | 0.00 | 1003.0 | |
| 20260504021845 | 0 | 27 | 8.0 | 10.0 | 0.00 | 0.00 | 0.00 | 1002.9 | |
| 20260504021342 | 0 | 6 | 7.0 | 8.0 | 0.00 | 0.00 | 0.00 | 1002.7 | |
| 20260504020840 | 0 | 349 | 5.0 | 7.0 | 0.00 | 0.00 | 0.00 | 1002.9 | |
| 20260504020336 | 0 | 25 | 3.0 | 6.0 | 0.00 | 0.00 | 0.00 | 1003.2 | |
| 20260504015832 | 0 | 354 | 6.0 | 10.0 | 0.00 | 0.00 | 0.00 | 1003.0 | |
| 20260504015328 | 0 | 333 | 5.0 | 6.0 | 0.00 | 0.00 | 0.00 | 1002.7 | |
| 20260504014825 | 0 | 25 | 9.0 | 11.0 | 0.00 | 0.00 | 0.00 | 1003.1 | |
| 20260504014321 | 0 | 18 | 9.0 | 10.0 | 0.00 | 0.00 | 0.00 | 1003.1 | |
| 20260504013819 | 0 | 25 | 6.0 | 7.0 | 0.00 | 0.00 | 0.00 | 1003.1 | |
| 20260504013316 | 0 | 3 | 7.0 | 9.0 | 0.00 | 0.00 | 0.00 | 1003.0 | |
| 20260504012813 | 0 | 346 | 5.0 | 7.0 | 0.00 | 0.00 | 0.00 | 1002.9 | |
| 20260504012311 | 0 | 334 | 5.0 | 9.0 | 0.00 | 0.00 | 0.00 | 1003.1 | |
| 20260504011808 | 0 | 24 | 10.0 | 13.0 | 0.00 | 0.00 | 0.00 | 1003.0 | |
| 20260504011304 | 0 | 23 | 3.0 | 5.0 | 0.00 | 0.00 | 0.00 | 1002.8 | |
| 20260504010800 | 0 | 13 | 4.0 | 6.0 | 0.00 | 0.00 | 0.00 | 1003.1 | |
| 20260504010256 | 0 | 10 | 5.0 | 11.0 | 0.00 | 0.00 | 0.00 | 1003.0 | |
| 20260504005753 | 0 | 34 | 10.0 | 13.0 | 0.00 | 0.00 | 0.00 | 1003.1 | |
| 20260504005250 | 0 | 18 | 8.0 | 10.0 | 0.00 | 0.00 | 0.00 | 1003.2 | |
| 20260504004747 | 0 | 334 | 7.0 | 14.0 | 0.00 | 0.00 | 0.00 | 1003.1 | |
| 20260504004245 | 0 | 54 | 9.0 | 11.0 | 0.00 | 0.00 | 0.00 | 1003.0 | |
| 20260504003741 | 0 | 268 | 6.0 | 11.0 | 0.00 | 0.00 | 0.00 | 1003.1 | |
| 20260504003238 | 0 | 56 | 3.0 | 6.0 | 0.00 | 0.00 | 0.00 | 1003.3 | |
| 20260504002734 | 0 | 14 | 3.0 | 5.0 | 0.00 | 0.00 | 0.00 | 1003.4 | |
| 20260504002231 | 0 | 4 | 8.0 | 11.0 | 0.00 | 0.00 | 0.00 | 1003.1 | |
| 20260504001729 | 0 | 334 | 5.0 | 10.0 | 0.00 | 0.00 | 0.00 | 1003.1 | |
| 20260504001226 | 0 | 133 | 0.0 | 1.0 | 0.00 | 0.00 | 0.00 | 1003.4 | |
| 20260504000723 | 0 | 358 | 3.0 | 6.0 | 0.00 | 0.00 | 0.00 | 1003.4 | |
| 20260504000219 | 0 | 354 | 7.0 | 9.0 | 0.00 | 0.00 | 0.00 | 1003.5 | |
| 20260503235718 | 0 | 352 | 3.0 | 6.0 | 0.00 | 0.00 | 0.00 | 1003.5 | |
| 20260503235215 | 0 | 15 | 8.0 | 11.0 | 0.00 | 0.00 | 0.00 | 1003.5 | |
| 20260503234713 | 0 | 75 | 2.0 | 2.0 | 0.00 | 0.00 | 0.00 | 1003.6 | |
| 20260503234210 | 0 | 237 | 6.0 | 7.0 | 0.00 | 0.00 | 0.00 | 1003.5 | |
| 20260503233707 | 0 | 299 | 9.0 | 13.0 | 0.00 | 0.00 | 0.00 | 1003.7 | |
| 20260503233203 | 0 | 213 | 5.0 | 8.0 | 0.00 | 0.00 | 0.00 | 1003.5 | |
| 20260503232700 | 0 | 350 | 5.0 | 7.0 | 0.00 | 0.00 | 0.00 | 1003.7 | |
| 20260503232157 | 0 | 346 | 5.0 | 8.0 | 0.00 | 0.00 | 0.00 | 1003.4 | |
| 20260503231655 | 0 | 313 | 4.0 | 5.0 | 0.00 | 0.00 | 0.00 | 1003.6 | |
| 20260503231151 | 0 | 358 | 2.0 | 5.0 | 0.00 | 0.00 | 0.00 | 1003.6 | |
| 20260503230648 | 0 | 268 | 3.0 | 3.0 | 0.00 | 0.00 | 0.00 | 1003.9 | |
| 20260503230145 | 0 | 334 | 6.0 | 9.0 | 0.00 | 0.00 | 0.00 | 1003.7 | |
| 20260503225642 | 0 | 79 | 7.0 | 10.0 | 0.00 | 0.00 | 0.00 | 1003.7 | |
| 20260503225142 | 0 | 336 | 11.0 | 14.0 | 0.00 | 0.00 | 0.00 | 1003.9 | |
| 20260503224640 | 0 | 63 | 7.0 | 9.0 | 0.00 | 0.00 | 0.00 | 1003.9 | |
| 20260503224138 | 0 | 214 | 6.0 | 10.0 | 0.00 | 0.00 | 0.00 | 1003.9 | |
| 20260503223636 | 0 | 290 | 10.0 | 13.0 | 0.00 | 0.00 | 0.00 | 1004.1 | |
| 20260503223132 | 0 | 119 | 3.0 | 6.0 | 0.00 | 0.00 | 0.00 | 1004.0 | |
| 20260503222629 | 0 | 248 | 12.0 | 13.0 | 0.00 | 0.00 | 0.00 | 1004.0 | |
| 20260503222127 | 0 | 61 | 3.0 | 6.0 | 0.00 | 0.00 | 0.00 | 1004.3 | |
| 20260503221625 | 0 | 319 | 9.0 | 14.0 | 0.00 | 0.00 | 0.00 | 1004.0 | |
| 20260503221122 | 0 | 22 | 7.0 | 9.0 | 0.00 | 0.00 | 0.00 | 1004.3 | |
| 20260503220619 | 0 | 309 | 11.0 | 16.0 | 0.00 | 0.00 | 0.00 | 1004.4 | |
| 20260503220115 | 0 | 21 | 7.0 | 9.0 | 0.00 | 0.00 | 0.00 | 1004.3 | |
| 20260503215612 | 0 | 223 | 14.0 | 16.0 | 0.00 | 0.00 | 0.00 | 1004.5 | |
| 20260503215109 | 0 | 320 | 15.0 | 16.0 | 0.00 | 0.00 | 0.00 | 1004.6 | |
| 20260503214608 | 0 | 315 | 13.0 | 17.0 | 0.00 | 0.00 | 0.00 | 1004.7 | |
| 20260503214103 | 0 | 303 | 9.0 | 9.0 | 0.00 | 0.00 | 0.00 | 1004.6 | |
| 20260503213603 | 0 | 300 | 10.0 | 11.0 | 0.00 | 0.00 | 0.00 | 1004.7 | |
| 20260503213058 | 0 | 282 | 6.0 | 9.0 | 0.00 | 0.00 | 0.00 | 1004.8 | |
| 20260503212556 | 0 | 2 | 7.0 | 8.0 | 0.00 | 0.00 | 0.00 | 1005.2 | |
| 20260503212053 | 0 | 243 | 9.0 | 14.0 | 0.00 | 0.00 | 0.00 | 1005.4 | |
| 20260503211550 | 0 | 311 | 17.0 | 20.0 | 0.00 | 0.00 | 0.00 | 1005.2 | |
| 20260503211045 | 0 | 304 | 10.0 | 13.0 | 0.00 | 0.00 | 0.00 | 1005.3 | |
| 20260503210543 | 0 | 262 | 10.0 | 11.0 | 0.00 | 0.00 | 0.00 | 1005.3 | |
| 20260503210038 | 0 | 342 | 6.0 | 8.0 | 0.00 | 0.00 | 0.00 | 1005.6 | |
| 20260503205535 | 0 | 284 | 13.0 | 16.0 | 0.00 | 0.00 | 0.00 | 1005.3 | |
| 20260503205032 | 0 | 298 | 9.0 | 9.0 | 0.00 | 0.00 | 0.00 | 1005.5 | |
| 20260503204529 | 0 | 18 | 5.0 | 6.0 | 0.00 | 0.00 | 0.00 | 1005.5 | |
| 20260503204026 | 0 | 307 | 10.0 | 14.0 | 0.00 | 0.00 | 0.00 | 1005.7 | |
| 20260503203523 | 0 | 44 | 6.0 | 8.0 | 0.00 | 0.00 | 0.00 | 1005.7 | |
| 20260503203020 | 0 | 357 | 4.0 | 9.0 | 0.00 | 0.00 | 0.00 | 1005.8 | |
| 20260503202518 | 0 | 49 | 6.0 | 8.0 | 0.00 | 0.00 | 0.00 | 1006.0 | |
| 20260503202016 | 0 | 321 | 13.0 | 15.0 | 0.00 | 0.00 | 0.00 | 1006.3 | |
| 20260503201514 | 0 | 39 | 5.0 | 6.0 | 0.00 | 0.00 | 0.00 | 1006.1 | |
| 20260503201010 | 0 | 312 | 17.0 | 22.0 | 0.00 | 0.00 | 0.00 | 1006.1 | |
| 20260503200507 | 0 | 108 | 2.0 | 2.0 | 0.00 | 0.00 | 0.00 | 1006.0 | |
| 20260503200004 | 0 | 318 | 11.0 | 14.0 | 0.00 | 0.00 | 0.00 | 1005.9 | |
| 20260503195501 | 0 | 253 | 16.0 | 20.0 | 0.00 | 0.00 | 0.00 | 1006.0 | |
| 20260503194957 | 0 | 259 | 10.0 | 11.0 | 0.00 | 0.00 | 0.00 | 1006.3 | |
| 20260503194455 | 0 | 284 | 20.0 | 24.0 | 0.00 | 0.00 | 0.00 | 1006.1 | |
| 20260503193949 | 0 | 271 | 9.0 | 10.0 | 0.00 | 0.00 | 0.00 | 1006.5 | |
| 20260503193445 | 0 | 310 | 14.0 | 17.0 | 0.00 | 0.00 | 0.00 | 1006.3 | |
| 20260503192941 | 0 | 245 | 7.0 | 8.0 | 0.00 | 0.00 | 0.00 | 1006.5 | |
| 20260503192437 | 0 | 255 | 11.0 | 13.0 | 0.00 | 0.00 | 0.00 | 1006.6 | |
| 20260503191933 | 0 | 282 | 10.0 | 11.0 | 0.00 | 0.00 | 0.00 | 1006.5 | |
| 20260503191431 | 0 | 326 | 8.0 | 9.0 | 0.00 | 0.00 | 0.00 | 1006.7 | |
| 20260503190927 | 0 | 293 | 7.0 | 13.0 | 0.00 | 0.00 | 0.00 | 1006.9 | |
| 20260503190425 | 0 | 289 | 9.0 | 11.0 | 0.00 | 0.00 | 0.00 | 1006.8 | |
| 20260503185921 | 0 | 287 | 10.0 | 11.0 | 0.00 | 0.00 | 0.00 | 1006.8 | |
| 20260503185418 | 0 | 312 | 13.0 | 17.0 | 0.00 | 0.00 | 0.00 | 1006.9 | |
| 20260503184917 | 0 | 285 | 17.0 | 22.0 | 0.00 | 0.00 | 0.00 | 1006.7 | |
| 20260503184414 | 0 | 344 | 4.0 | 7.0 | 0.00 | 0.00 | 0.00 | 1006.9 | |
| 20260503183910 | 0 | 300 | 13.0 | 17.0 | 0.00 | 0.00 | 0.00 | 1006.9 | |
| 20260503183407 | 0 | 315 | 4.0 | 6.0 | 0.00 | 0.00 | 0.00 | 1007.0 | |
| 20260503182904 | 0 | 314 | 13.0 | 14.0 | 0.00 | 0.00 | 0.00 | 1007.3 | |
| 20260503182403 | 0 | 238 | 11.0 | 15.0 | 0.00 | 0.00 | 0.00 | 1007.5 | |
| 20260503181900 | 0 | 344 | 11.0 | 15.0 | 0.00 | 0.00 | 0.00 | 1007.6 | |
| 20260503181356 | 0 | 321 | 16.0 | 18.0 | 0.00 | 0.00 | 0.00 | 1007.5 | |
| 20260503180853 | 0 | 271 | 15.0 | 17.0 | 0.00 | 0.00 | 0.00 | 1007.7 | |
| 20260503180351 | 0 | 290 | 8.0 | 11.0 | 0.00 | 0.00 | 0.00 | 1007.8 | |
| 20260503175847 | 0 | 316 | 15.0 | 18.0 | 0.00 | 0.00 | 0.00 | 1007.6 | |
| 20260503175345 | 0 | 304 | 6.0 | 7.0 | 0.00 | 0.00 | 0.00 | 1007.6 | |
| 20260503174841 | 0 | 289 | 9.0 | 9.0 | 0.00 | 0.00 | 0.00 | 1008.0 | |
| 20260503174339 | 0 | 356 | 3.0 | 5.0 | 0.00 | 0.00 | 0.00 | 1007.9 | |
| 20260503173834 | 0 | 253 | 3.0 | 5.0 | 0.00 | 0.00 | 0.00 | 1007.9 | |
| 20260503173331 | 0 | 279 | 6.0 | 7.0 | 0.00 | 0.00 | 0.00 | 1007.9 | |
| 20260503172827 | 0 | 262 | 7.0 | 7.0 | 0.00 | 0.00 | 0.00 | 1008.1 | |
| 20260503172325 | 0 | 314 | 5.0 | 7.0 | 0.00 | 0.00 | 0.00 | 1008.2 | |
| 20260503171821 | 0 | 295 | 9.0 | 10.0 | 0.00 | 0.00 | 0.00 | 1008.3 | |
| 20260503171318 | 0 | 305 | 6.0 | 7.0 | 0.00 | 0.00 | 0.00 | 1008.0 | |
| 20260503170815 | 0 | 280 | 7.0 | 10.0 | 0.00 | 0.00 | 0.00 | 1008.2 | |
| 20260503170312 | 0 | 304 | 13.0 | 14.0 | 0.00 | 0.00 | 0.00 | 1008.3 | |
| 20260503150704 | 0 | 291 | 8.0 | 9.0 | 0.00 | 0.00 | 0.00 | 1009.2 | |
| 20260503150200 | 0 | 311 | 6.0 | 7.0 | 0.00 | 0.00 | 0.00 | 1009.4 | |
| 20260503140124 | 0 | 307 | 2.0 | 2.0 | 0.00 | 0.00 | 0.00 | 1009.8 | |
| 20260503131054 | 0 | 114 | 0.0 | 0.0 | 0.00 | 0.00 | 0.00 | 1009.8 | |
| 20260503130551 | 0 | 111 | 0.0 | 0.0 | 0.00 | 0.00 | 0.00 | 1009.5 |